�������l�o���
Date,Time,MP-1(��Sv/h),MP-2(��Sv/h),MP-3(��Sv/h),MP-4(��Sv/h),MP-5(��Sv/h),MP-6(��Sv/h),MP-7(��Sv/h),MP-8(��Sv/h),����,����(m/s),���J
2020/05/23,00:00,0.660,0.939,0.626,1.146,0.808,0.386,0.668,0.634,�k�k��,5.2,�L
2020/05/23,00:10,0.660,0.936,0.625,1.144,0.811,0.386,0.667,0.635,�k�k��,4.9,�L
2020/05/23,00:20,0.662,0.937,0.624,1.142,0.808,0.387,0.667,0.636,�k�k��,5.4,�L
2020/05/23,00:30,0.661,0.937,0.625,1.143,0.809,0.385,0.667,0.636,�k�k��,5.5,�L
2020/05/23,00:40,0.662,0.934,0.624,1.141,0.806,0.387,0.667,0.636,�k�k��,5.8,�L
2020/05/23,00:50,0.660,0.934,0.621,1.141,0.803,0.386,0.665,0.634,�k�k��,5.1,�L
2020/05/23,01:00,0.658,0.933,0.622,1.140,0.806,0.385,0.667,0.632,�k�k��,5.7,�L
2020/05/23,01:10,0.658,0.933,0.623,1.139,0.805,0.384,0.667,0.634,�k�k��,6.4,�L
2020/05/23,01:20,0.657,0.933,0.624,1.137,0.804,0.386,0.665,0.634,�k�k��,5.7,�L
2020/05/23,01:30,0.658,0.932,0.623,1.136,0.805,0.386,0.665,0.635,�k�k��,5.1,�L
2020/05/23,01:40,0.657,0.931,0.621,1.135,0.804,0.385,0.664,0.632,�k�k��,4.9,�L
2020/05/23,01:50,0.658,0.931,0.621,1.136,0.803,0.386,0.664,0.634,�k�k��,4.7,�L
2020/05/23,02:00,0.656,0.931,0.623,1.137,0.802,0.385,0.662,0.633,�k�k��,4.5,�L
2020/05/23,02:10,0.656,0.931,0.623,1.135,0.802,0.384,0.664,0.633,�k�k��,5.3,�L
2020/05/23,02:20,0.657,0.930,0.621,1.132,0.803,0.384,0.663,0.632,�k�k��,5.7,�L
2020/05/23,02:30,0.655,0.927,0.620,1.135,0.800,0.384,0.664,0.633,�k�k��,6.0,�L
2020/05/23,02:40,0.657,0.929,0.622,1.135,0.803,0.384,0.665,0.632,�k�k��,5.8,�L
2020/05/23,02:50,0.659,0.930,0.622,1.137,0.802,0.385,0.665,0.632,�k�k��,6.0,�L
2020/05/23,03:00,0.658,0.930,0.619,1.135,0.801,0.385,0.663,0.632,�k�k��,5.5,�L
2020/05/23,03:10,0.656,0.929,0.623,1.134,0.801,0.383,0.663,0.632,�k�k��,4.8,�L
2020/05/23,03:20,0.656,0.932,0.621,1.134,0.799,0.383,0.662,0.631,�k�k��,4.9,�L
2020/05/23,03:30,0.656,0.930,0.621,1.135,0.798,0.384,0.663,0.629,�k�k��,4.3,�L
2020/05/23,03:40,0.656,0.929,0.621,1.132,0.798,0.384,0.662,0.630,�k�k��,2.9,�L
2020/05/23,03:50,0.654,0.931,0.619,1.134,0.799,0.383,0.662,0.633,�k�k��,3.4,�L
2020/05/23,04:00,0.658,0.932,0.620,1.133,0.799,0.384,0.664,0.632,�k�k��,3.8,�L
2020/05/23,04:10,0.658,0.929,0.621,1.138,0.799,0.384,0.663,0.631,�k�k��,3.3,�L
2020/05/23,04:20,0.657,0.933,0.621,1.137,0.801,0.385,0.664,0.632,�k��,3.2,�L
2020/05/23,04:30,0.658,0.935,0.622,1.138,0.800,0.384,0.664,0.633,�k��,4.3,�L
2020/05/23,04:40,0.660,0.934,0.622,1.138,0.799,0.384,0.664,0.634,�k�k��,4.1,�L
2020/05/23,04:50,0.657,0.934,0.620,1.139,0.800,0.385,0.664,0.632,�k�k��,3.8,�L
2020/05/23,05:00,0.656,0.931,0.621,1.135,0.800,0.383,0.663,0.631,�k�k��,3.9,�L
2020/05/23,05:10,0.657,0.927,0.619,1.134,0.797,0.384,0.661,0.632,�k�k��,4.7,�L
2020/05/23,05:20,0.657,0.930,0.620,1.136,0.797,0.384,0.663,0.633,�k�k��,5.5,�L
2020/05/23,05:30,0.656,0.928,0.620,1.132,0.798,0.384,0.664,0.633,�k�k��,4.4,�L
2020/05/23,05:40,0.655,0.928,0.620,1.133,0.796,0.383,0.661,0.631,�k�k��,4.2,�L
2020/05/23,05:50,0.656,0.925,0.620,1.128,0.796,0.383,0.663,0.632,�k�k��,5.1,�L
2020/05/23,06:00,0.652,0.925,0.619,1.129,0.795,0.383,0.661,0.631,�k��,4.0,�L
2020/05/23,06:10,0.654,0.927,0.621,1.127,0.794,0.383,0.661,0.630,�k�k��,3.2,�L
2020/05/23,06:20,0.656,0.927,0.619,1.131,0.794,0.384,0.661,0.628,�k��,3.2,�L
2020/05/23,06:30,0.657,0.929,0.620,1.128,0.794,0.384,0.662,0.631,�k�k��,3.4,�L
2020/05/23,06:40,0.656,0.930,0.622,1.129,0.795,0.383,0.665,0.630,�k�k��,3.1,�L
2020/05/23,06:50,0.657,0.929,0.622,1.131,0.794,0.384,0.662,0.629,�k�k��,2.6,�L
2020/05/23,07:00,0.656,0.928,0.620,1.132,0.792,0.384,0.663,0.631,�k�k��,2.0,�L
2020/05/23,07:10,0.656,0.928,0.619,1.133,0.794,0.384,0.664,0.630,�k�k��,2.3,�L
2020/05/23,07:20,0.656,0.931,0.620,1.132,0.792,0.385,0.662,0.631,�k�k��,2.5,�L
2020/05/23,07:30,0.656,0.930,0.620,1.133,0.796,0.385,0.663,0.630,�k,2.0,�L
2020/05/23,07:40,0.658,0.930,0.621,1.137,0.795,0.385,0.662,0.629,�k,1.7,�L
2020/05/23,07:50,0.660,0.930,0.620,1.136,0.794,0.383,0.663,0.630,�k�k��,0.9,�L
2020/05/23,08:00,0.660,0.931,0.620,1.136,0.794,0.386,0.663,0.633,�k,0.6,�L
2020/05/23,08:10,0.658,0.930,0.621,1.134,0.797,0.386,0.663,0.631,-,CALM,�L
2020/05/23,08:20,0.657,0.931,0.621,1.136,0.796,0.384,0.664,0.630,-,CALM,�L
2020/05/23,08:30,0.658,0.932,0.622,1.140,0.797,0.384,0.662,0.630,��,1.2,�L
2020/05/23,08:40,0.660,0.930,0.622,1.139,0.798,0.385,0.664,0.633,���k��,0.8,�L
2020/05/23,08:50,0.658,0.930,0.621,1.141,0.797,0.386,0.665,0.630,-,CALM,�L
2020/05/23,09:00,0.658,0.930,0.621,1.139,0.796,0.385,0.665,0.632,�k��,1.4,�L
2020/05/23,09:10,0.658,0.930,0.621,1.140,0.797,0.384,0.662,0.629,-,CALM,�L
2020/05/23,09:20,0.657,0.927,0.620,1.134,0.793,0.384,0.663,0.629,�쐼,0.8,�L
2020/05/23,09:30,0.658,0.927,0.621,1.138,0.793,0.385,0.663,0.630,��쐼,1.2,�L
2020/05/23,09:40,0.657,0.925,0.621,1.133,0.792,0.385,0.662,0.629,��,2.3,�L
2020/05/23,09:50,0.656,0.924,0.621,1.134,0.792,0.384,0.662,0.627,��,3.1,�L
2020/05/23,10:00,0.654,0.926,0.620,1.135,0.792,0.385,0.661,0.630,��,3.4,�L
2020/05/23,10:10,0.654,0.928,0.621,1.136,0.790,0.384,0.662,0.628,��쓌,4.4,�L
2020/05/23,10:20,0.655,0.927,0.621,1.133,0.790,0.383,0.662,0.627,��쓌,6.1,�L
2020/05/23,10:30,0.655,0.927,0.621,1.135,0.791,0.387,0.663,0.627,��쓌,5.8,�L
2020/05/23,10:40,0.657,0.927,0.620,1.138,0.794,0.384,0.663,0.629,��쓌,7.1,�L
2020/05/23,10:50,0.657,0.929,0.620,1.139,0.795,0.385,0.662,0.628,��쓌,7.3,�L
2020/05/23,11:00,0.658,0.930,0.621,1.141,0.796,0.386,0.664,0.630,��,7.1,��
2020/05/23,11:10,0.658,0.929,0.621,1.140,0.797,0.386,0.664,0.630,��,7.4,��
2020/05/23,11:20,0.658,0.933,0.622,1.142,0.796,0.385,0.666,0.628,��,6.9,��
2020/05/23,11:30,0.660,0.934,0.624,1.143,0.798,0.386,0.665,0.630,��,5.9,��
2020/05/23,11:40,0.660,0.936,0.623,1.141,0.798,0.387,0.667,0.629,��,6.2,��
2020/05/23,11:50,0.662,0.938,0.623,1.140,0.803,0.388,0.668,0.631,��쓌,6.1,��
2020/05/23,12:00,0.661,0.939,0.625,1.143,0.804,0.389,0.666,0.631,��쓌,6.4,�L
2020/05/23,12:10,0.663,0.940,0.624,1.141,0.802,0.387,0.667,0.633,��쓌,6.4,��
2020/05/23,12:20,0.664,0.943,0.626,1.141,0.802,0.389,0.667,0.631,��쓌,6.5,��
2020/05/23,12:30,0.664,0.940,0.625,1.144,0.805,0.389,0.670,0.631,��쓌,7.0,�L
2020/05/23,12:40,0.664,0.943,0.626,1.144,0.806,0.388,0.669,0.631,��쓌,7.1,�L
2020/05/23,12:50,0.665,0.945,0.624,1.146,0.805,0.388,0.669,0.633,��,6.7,�L
2020/05/23,13:00,0.664,0.943,0.626,1.145,0.804,0.388,0.671,0.631,��쓌,6.6,�L
2020/05/23,13:10,0.665,0.945,0.626,1.147,0.806,0.390,0.669,0.632,��쓌,7.4,�L
2020/05/23,13:20,0.665,0.944,0.626,1.145,0.807,0.389,0.669,0.631,��쓌,7.0,�L
2020/05/23,13:30,0.664,0.943,0.628,1.146,0.804,0.389,0.671,0.633,��쓌,6.4,�L
2020/05/23,13:40,0.666,0.943,0.627,1.147,0.807,0.390,0.670,0.633,��쓌,7.2,�L
2020/05/23,13:50,0.664,0.944,0.627,1.146,0.806,0.390,0.671,0.633,��쓌,8.0,�L
2020/05/23,14:00,0.666,0.944,0.627,1.148,0.806,0.391,0.669,0.633,��쓌,7.5,�L
2020/05/23,14:10,0.665,0.944,0.628,1.149,0.807,0.389,0.671,0.633,��쓌,7.4,�L
2020/05/23,14:20,0.666,0.944,0.627,1.150,0.806,0.390,0.671,0.633,��쓌,7.2,�L
2020/05/23,14:30,0.667,0.947,0.628,1.151,0.805,0.390,0.670,0.632,��쓌,8.0,�L
2020/05/23,14:40,0.667,0.945,0.629,1.153,0.805,0.388,0.668,0.633,��쓌,9.9,�L
2020/05/23,14:50,0.667,0.947,0.630,1.154,0.806,0.391,0.671,0.632,��쓌,9.6,�L
2020/05/23,15:00,0.668,0.948,0.629,1.153,0.807,0.390,0.670,0.633,��쓌,8.8,�L
2020/05/23,15:10,0.667,0.947,0.629,1.154,0.810,0.390,0.670,0.634,��쓌,8.1,�L
2020/05/23,15:20,0.668,0.948,0.629,1.153,0.808,0.389,0.669,0.633,��쓌,9.5,�L
2020/05/23,15:30,0.669,0.947,0.630,1.154,0.809,0.390,0.670,0.634,��쓌,9.9,�L
2020/05/23,15:40,0.668,0.949,0.629,1.153,0.810,0.390,0.672,0.633,��쓌,9.0,��
2020/05/23,15:50,0.667,0.950,0.630,1.153,0.809,0.391,0.670,0.634,��,8.6,��
2020/05/23,16:00,0.667,0.953,0.631,1.155,0.809,0.391,0.671,0.633,��쓌,11.0,��
2020/05/23,16:10,0.668,0.949,0.631,1.154,0.806,0.392,0.670,0.634,��,10.9,��
2020/05/23,16:20,0.667,0.950,0.630,1.154,0.809,0.391,0.672,0.634,��쓌,11.9,��
2020/05/23,16:30,0.666,0.951,0.631,1.154,0.810,0.390,0.670,0.633,��,10.8,�L
2020/05/23,16:40,0.668,0.951,0.630,1.153,0.809,0.391,0.672,0.633,��쓌,9.8,�L
2020/05/23,16:50,0.667,0.951,0.631,1.152,0.811,0.391,0.671,0.633,��,10.3,�L
2020/05/23,17:00,0.667,0.953,0.628,1.154,0.811,0.391,0.673,0.635,��,10.9,�L
2020/05/23,17:10,0.668,0.952,0.630,1.156,0.809,0.391,0.670,0.632,��쓌,10.9,�L
2020/05/23,17:20,0.668,0.950,0.631,1.154,0.808,0.392,0.668,0.634,��,9.8,�L
2020/05/23,17:30,0.668,0.948,0.630,1.154,0.805,0.394,0.669,0.631,��,8.3,�L
2020/05/23,17:40,0.666,0.942,0.627,1.153,0.802,0.392,0.665,0.632,��,6.8,�L
2020/05/23,17:50,0.665,0.942,0.628,1.148,0.802,0.393,0.665,0.629,��,7.8,�L
2020/05/23,18:00,0.666,0.941,0.627,1.147,0.801,0.394,0.665,0.630,��,8.5,�L
2020/05/23,18:10,0.666,0.939,0.628,1.146,0.799,0.394,0.666,0.630,��,7.2,�L
2020/05/23,18:20,0.666,0.938,0.628,1.145,0.801,0.396,0.663,0.630,��,7.7,�L
2020/05/23,18:30,0.665,0.936,0.626,1.142,0.798,0.394,0.664,0.632,��,7.4,�L
2020/05/23,18:40,0.665,0.937,0.626,1.139,0.798,0.394,0.664,0.629,��,8.5,�L
2020/05/23,18:50,0.665,0.937,0.626,1.140,0.797,0.393,0.663,0.631,��,7.5,�L
2020/05/23,19:00,0.664,0.938,0.626,1.143,0.797,0.392,0.663,0.630,��,6.4,�L
2020/05/23,19:10,0.663,0.938,0.626,1.139,0.798,0.393,0.663,0.630,��,6.9,�L
2020/05/23,19:20,0.664,0.937,0.626,1.140,0.798,0.391,0.663,0.628,��쐼,6.1,��
2020/05/23,19:30,0.664,0.939,0.625,1.139,0.798,0.394,0.663,0.631,��,7.8,��
2020/05/23,19:40,0.664,0.937,0.624,1.140,0.797,0.392,0.664,0.629,��쐼,7.3,��
2020/05/23,19:50,0.662,0.939,0.623,1.140,0.798,0.392,0.664,0.631,��,7.6,��
2020/05/23,20:00,0.661,0.941,0.624,1.139,0.797,0.390,0.663,0.631,��쐼,7.5,��
2020/05/23,20:10,0.661,0.940,0.625,1.140,0.798,0.390,0.663,0.632,��쐼,8.0,��
2020/05/23,20:20,0.660,0.941,0.625,1.141,0.798,0.391,0.664,0.632,��쐼,8.4,��
2020/05/23,20:30,0.660,0.942,0.625,1.139,0.798,0.390,0.665,0.632,��쐼,7.7,��
2020/05/23,20:40,0.662,0.942,0.624,1.140,0.799,0.391,0.665,0.634,��쐼,7.6,��
2020/05/23,20:50,0.662,0.940,0.624,1.140,0.801,0.391,0.667,0.632,��쐼,7.1,��
2020/05/23,21:00,0.664,0.942,0.624,1.140,0.801,0.390,0.665,0.634,��쐼,5.7,��
2020/05/23,21:10,0.663,0.941,0.624,1.141,0.801,0.390,0.667,0.632,��,5.6,��
2020/05/23,21:20,0.665,0.937,0.623,1.141,0.801,0.391,0.665,0.633,��,4.8,��
2020/05/23,21:30,0.664,0.939,0.623,1.144,0.802,0.389,0.667,0.635,��,4.2,��
2020/05/23,21:40,0.664,0.940,0.624,1.143,0.801,0.392,0.667,0.633,��,4.6,��
2020/05/23,21:50,0.662,0.939,0.625,1.145,0.802,0.390,0.667,0.634,��,5.2,��
2020/05/23,22:00,0.663,0.941,0.624,1.144,0.802,0.391,0.667,0.634,��,5.7,��
2020/05/23,22:10,0.663,0.941,0.624,1.141,0.800,0.391,0.670,0.633,��,6.0,��
2020/05/23,22:20,0.666,0.941,0.625,1.143,0.802,0.390,0.667,0.632,��,6.7,�L
2020/05/23,22:30,0.664,0.941,0.625,1.145,0.802,0.390,0.670,0.632,��,6.8,��
2020/05/23,22:40,0.663,0.941,0.626,1.147,0.801,0.390,0.668,0.634,��,7.0,�L
2020/05/23,22:50,0.664,0.939,0.627,1.145,0.804,0.390,0.668,0.634,��,7.8,�L
2020/05/23,23:00,0.665,0.942,0.626,1.146,0.803,0.389,0.668,0.633,��,7.4,��
2020/05/23,23:10,0.664,0.943,0.625,1.144,0.801,0.390,0.669,0.634,��,6.5,��
2020/05/23,23:20,0.664,0.944,0.625,1.146,0.804,0.389,0.668,0.635,��,6.4,��
2020/05/23,23:30,0.666,0.943,0.626,1.145,0.804,0.390,0.668,0.635,��쐼,3.6,�L
2020/05/23,23:40,0.663,0.942,0.626,1.147,0.804,0.392,0.667,0.634,��쐼,4.0,�L
2020/05/23,23:50,0.664,0.941,0.625,1.148,0.804,0.390,0.670,0.634,��,6.0,�L
